User: anonymous   Login
Location: Azul
(36.7830°S, 59.8500°W)
Time: 10:40:06
(UTC-03:00)
Language:

First-Move - Orbit

View from above orbital plane
View from above orbital plane
View from above satellite
View from above satellite

Ground track
Ground track

The orbit data is extracted from the following two-line orbital elements,

1 39439U 13066Z   24064.87979196  .00011925  00000-0  10368-2 0  9994
2 39439  97.7126  29.5739 0051804 124.3855 236.2281 14.96075612555261
Epoch (UTC): 04 March 2024 21:06:54
Eccentricity: 0.0051804
inclination: 97.7126°
perigee height: 543 km
apogee height: 615 km
right ascension of ascending node: 29.5739°
argument of perigee: 124.3855°
revolutions per day: 14.96075612
mean anomaly at epoch: 236.2281°
orbit number at epoch: 55526

The dashed part of the orbit path shows where the satellite is in the earth's shadow,  

DLR